| time (UTC) | temp C | wind direction | speed KPH | gust KPH | rain 1hr cm | rain 24hr cm | rain mn cm | humidity % | barometer mb |
| 20260906070919 | 15 | 284 | 16.1 | 27.4 | 0.00 | 0.00 | 0.00 | 84 | 1014.5 |
| 20260906070441 | 15 | 280 | 14.5 | 27.4 | 0.00 | 0.00 | 0.00 | 84 | 1014.5 |
| 20260906065941 | 15 | 299 | 16.1 | 29.0 | 0.00 | 0.00 | 0.00 | 84 | 1014.5 |
| 20260906065455 | 15 | 276 | 19.3 | 29.0 | 0.00 | 0.00 | 0.00 | 84 | 1014.5 |
| 20260906064920 | 15 | 359 | 16.1 | 27.4 | 0.00 | 0.00 | 0.00 | 84 | 1014.5 |
| 20260906064424 | 15 | 271 | 14.5 | 25.7 | 0.00 | 0.00 | 0.00 | 83 | 1014.6 |
| 20260906063933 | 15 | 247 | 14.5 | 27.4 | 0.00 | 0.00 | 0.00 | 83 | 1014.5 |
| 20260906063419 | 15 | 270 | 12.9 | 27.4 | 0.00 | 0.00 | 0.00 | 83 | 1014.6 |
| 20260906062920 | 15 | 249 | 14.5 | 24.1 | 0.00 | 0.00 | 0.00 | 83 | 1014.6 |
| 20260906062426 | 15 | 249 | 14.5 | 24.1 | 0.00 | 0.00 | 0.00 | 83 | 1014.6 |
| 20260906061931 | 15 | 264 | 11.3 | 24.1 | 0.00 | 0.00 | 0.00 | 83 | 1014.7 |
| 20260906061419 | 15 | 275 | 11.3 | 24.1 | 0.00 | 0.00 | 0.00 | 83 | 1014.8 |
| 20260906060945 | 15 | 247 | 14.5 | 25.7 | 0.00 | 0.00 | 0.00 | 83 | 1014.8 |
| 20260906060431 | 15 | 257 | 16.1 | 25.7 | 0.00 | 0.00 | 0.00 | 83 | 1014.8 |
| 20260906055931 | 15 | 263 | 11.3 | 29.0 | 0.00 | 0.00 | 0.00 | 83 | 1014.9 |
| 20260906055419 | 15 | 263 | 12.9 | 20.9 | 0.00 | 0.00 | 0.00 | 82 | 1014.8 |
| 20260906054954 | 15 | 264 | 11.3 | 19.3 | 0.00 | 0.00 | 0.00 | 82 | 1014.9 |
| 20260906054419 | 15 | 227 | 9.7 | 20.9 | 0.00 | 0.00 | 0.00 | 82 | 1014.9 |
| 20260906053927 | 15 | 219 | 11.3 | 20.9 | 0.00 | 0.00 | 0.00 | 82 | 1014.9 |
| 20260906053435 | 15 | 280 | 8.0 | 17.7 | 0.00 | 0.00 | 0.00 | 82 | 1015.0 |
| 20260906052920 | 15 | 268 | 8.0 | 16.1 | 0.00 | 0.00 | 0.00 | 81 | 1015.0 |
| 20260906052447 | 15 | 268 | 3.2 | 14.5 | 0.00 | 0.00 | 0.00 | 81 | 1015.1 |
| 20260906051932 | 15 | 226 | 4.8 | 16.1 | 0.00 | 0.00 | 0.00 | 81 | 1015.0 |
| 20260906051420 | 15 | 257 | 8.0 | 16.1 | 0.00 | 0.00 | 0.00 | 81 | 1015.1 |
| 20260906050929 | 15 | 256 | 6.4 | 20.9 | 0.00 | 0.00 | 0.00 | 81 | 1015.1 |
| 20260906050434 | 16 | 240 | 9.7 | 24.1 | 0.00 | 0.00 | 0.00 | 81 | 1015.0 |
| 20260906045917 | 16 | 296 | 8.0 | 24.1 | 0.00 | 0.00 | 0.00 | 80 | 1015.0 |
| 20260906045424 | 16 | 256 | 12.9 | 22.5 | 0.00 | 0.00 | 0.00 | 80 | 1015.0 |
| 20260906044929 | 16 | 264 | 8.0 | 16.1 | 0.00 | 0.00 | 0.00 | 80 | 1015.0 |
| 20260906044431 | 16 | 298 | 6.4 | 16.1 | 0.00 | 0.00 | 0.00 | 80 | 1015.0 |
| 20260906043919 | 16 | 226 | 8.0 | 14.5 | 0.00 | 0.00 | 0.00 | 79 | 1015.0 |
| 20260906043424 | 16 | 222 | 8.0 | 16.1 | 0.00 | 0.00 | 0.00 | 79 | 1014.9 |
| 20260906042930 | 16 | 253 | 9.7 | 16.1 | 0.00 | 0.00 | 0.00 | 80 | 1014.9 |
| 20260906042417 | 16 | 226 | 8.0 | 17.7 | 0.00 | 0.00 | 0.00 | 80 | 1014.8 |
| 20260906041944 | 16 | 285 | 9.7 | 17.7 | 0.00 | 0.00 | 0.00 | 79 | 1014.7 |
| 20260906041443 | 16 | 270 | 11.3 | 22.5 | 0.00 | 0.00 | 0.00 | 79 | 1014.6 |
| 20260906040928 | 16 | 247 | 8.0 | 24.1 | 0.00 | 0.00 | 0.00 | 79 | 1014.6 |
| 20260906040503 | 16 | 292 | 16.1 | 22.5 | 0.00 | 0.00 | 0.00 | 79 | 1014.6 |
| 20260906035918 | 16 | 263 | 11.3 | 22.5 | 0.00 | 0.00 | 0.00 | 78 | 1014.5 |
| 20260906035443 | 16 | 318 | 14.5 | 22.5 | 0.00 | 0.00 | 0.00 | 78 | 1014.5 |
| 20260906034954 | 16 | 268 | 8.0 | 14.5 | 0.00 | 0.00 | 0.00 | 78 | 1014.4 |
| 20260906034436 | 16 | 284 | 8.0 | 16.1 | 0.00 | 0.00 | 0.00 | 78 | 1014.4 |
| 20260906033944 | 16 | 304 | 6.4 | 11.3 | 0.00 | 0.00 | 0.00 | 79 | 1014.2 |
| 20260906033425 | 16 | 301 | 4.8 | 14.5 | 0.00 | 0.00 | 0.00 | 79 | 1014.1 |
| 20260906032930 | 16 | 284 | 6.4 | 14.5 | 0.00 | 0.00 | 0.00 | 79 | 1014.2 |
| 20260906032434 | 16 | 330 | 4.8 | 14.5 | 0.00 | 0.00 | 0.00 | 79 | 1014.2 |
| 20260906031930 | 16 | 19 | 4.8 | 16.1 | 0.00 | 0.00 | 0.00 | 79 | 1014.2 |
| 20260906031431 | 16 | 283 | 6.4 | 20.9 | 0.00 | 0.00 | 0.00 | 79 | 1014.0 |
| 20260906030919 | 16 | 275 | 9.7 | 29.0 | 0.00 | 0.00 | 0.00 | 79 | 1013.9 |
| 20260906030423 | 16 | 322 | 12.9 | 29.0 | 0.00 | 0.00 | 0.00 | 79 | 1013.9 |
| 20260906025930 | 16 | 278 | 11.3 | 19.3 | 0.00 | 0.00 | 0.00 | 79 | 1013.8 |
| 20260906025417 | 16 | 275 | 12.9 | 25.7 | 0.00 | 0.00 | 0.00 | 79 | 1013.8 |
| 20260906024917 | 16 | 278 | 14.5 | 25.7 | 0.00 | 0.00 | 0.00 | 78 | 1013.8 |
| 20260906024438 | 16 | 298 | 11.3 | 24.1 | 0.00 | 0.00 | 0.00 | 78 | 1013.8 |
| 20260906023946 | 17 | 263 | 12.9 | 24.1 | 0.00 | 0.00 | 0.00 | 78 | 1014.0 |
| 20260906023430 | 17 | 270 | 12.9 | 24.1 | 0.00 | 0.00 | 0.00 | 77 | 1014.1 |
| 20260906022936 | 17 | 292 | 9.7 | 20.9 | 0.00 | 0.00 | 0.00 | 77 | 1014.1 |
| 20260906022443 | 17 | 301 | 11.3 | 25.7 | 0.00 | 0.00 | 0.00 | 76 | 1013.9 |
| 20260906021929 | 17 | 275 | 12.9 | 25.7 | 0.00 | 0.00 | 0.00 | 75 | 1013.9 |
| 20260906021416 | 17 | 265 | 12.9 | 37.0 | 0.00 | 0.00 | 0.00 | 75 | 1013.9 |
| 20260906020920 | 17 | 289 | 17.7 | 37.0 | 0.00 | 0.00 | 0.00 | 74 | 1013.9 |
| 20260906020443 | 17 | 277 | 16.1 | 30.6 | 0.00 | 0.00 | 0.00 | 74 | 1013.8 |
| 20260906015954 | 17 | 305 | 16.1 | 29.0 | 0.00 | 0.00 | 0.00 | 74 | 1013.9 |
| 20260906015420 | 17 | 239 | 16.1 | 33.8 | 0.00 | 0.00 | 0.00 | 73 | 1014.0 |
| 20260906014922 | 17 | 291 | 16.1 | 32.2 | 0.00 | 0.00 | 0.00 | 73 | 1014.1 |
| 20260906014429 | 17 | 302 | 16.1 | 33.8 | 0.00 | 0.00 | 0.00 | 73 | 1014.2 |
| 20260906013926 | 17 | 306 | 16.1 | 33.8 | 0.00 | 0.00 | 0.00 | 73 | 1014.1 |
| 20260906013429 | 17 | 292 | 19.3 | 33.8 | 0.00 | 0.00 | 0.00 | 73 | 1014.1 |
| 20260906012934 | 18 | 284 | 17.7 | 32.2 | 0.00 | 0.00 | 0.00 | 72 | 1014.0 |
| 20260906012441 | 17 | 338 | 19.3 | 38.6 | 0.00 | 0.00 | 0.00 | 73 | 1014.0 |
| 20260906011926 | 17 | 283 | 19.3 | 38.6 | 0.00 | 0.00 | 0.00 | 73 | 1014.0 |
| 20260906011432 | 17 | 277 | 24.1 | 41.8 | 0.00 | 0.00 | 0.00 | 73 | 1014.0 |
| 20260906010919 | 18 | 281 | 27.4 | 41.8 | 0.00 | 0.00 | 0.00 | 72 | 1014.0 |
| 20260906010419 | 18 | 282 | 20.9 | 38.6 | 0.00 | 0.00 | 0.00 | 72 | 1014.0 |
| 20260906005921 | 18 | 261 | 22.5 | 38.6 | 0.00 | 0.00 | 0.00 | 71 | 1014.0 |
| 20260906005427 | 18 | 285 | 17.7 | 37.0 | 0.00 | 0.00 | 0.00 | 71 | 1014.1 |
| 20260906004930 | 18 | 276 | 24.1 | 37.0 | 0.00 | 0.00 | 0.00 | 71 | 1014.1 |
| 20260906004433 | 18 | 304 | 19.3 | 33.8 | 0.00 | 0.00 | 0.00 | 71 | 1014.1 |
| 20260906003919 | 18 | 304 | 17.7 | 35.4 | 0.00 | 0.00 | 0.00 | 71 | 1014.2 |
| 20260906003443 | 18 | 265 | 20.9 | 35.4 | 0.00 | 0.00 | 0.00 | 71 | 1014.2 |
| 20260906002925 | 18 | 259 | 19.3 | 33.8 | 0.00 | 0.00 | 0.00 | 70 | 1014.2 |
| 20260906002434 | 19 | 281 | 16.1 | 33.8 | 0.00 | 0.00 | 0.00 | 69 | 1014.2 |
| 20260906001939 | 19 | 270 | 17.7 | 32.2 | 0.00 | 0.00 | 0.00 | 69 | 1014.3 |
| 20260906001456 | 19 | 301 | 16.1 | 32.2 | 0.00 | 0.00 | 0.00 | 69 | 1014.3 |
| 20260906000922 | 19 | 280 | 16.1 | 32.2 | 0.00 | 0.00 | 0.00 | 68 | 1014.3 |
| 20260906000430 | 19 | 294 | 19.3 | 32.2 | 0.00 | 0.00 | 0.00 | 68 | 1014.2 |
| 20260905235930 | 19 | 287 | 20.9 | 33.8 | 0.00 | 0.00 | 0.00 | 68 | 1014.3 |
| 20260905235420 | 19 | 268 | 14.5 | 33.8 | 0.00 | 0.00 | 0.00 | 69 | 1014.3 |
| 20260905234929 | 19 | 280 | 14.5 | 30.6 | 0.00 | 0.00 | 0.00 | 69 | 1014.5 |
| 20260905234435 | 19 | 277 | 16.1 | 29.0 | 0.00 | 0.00 | 0.00 | 69 | 1014.4 |
| 20260905233923 | 18 | 293 | 17.7 | 27.4 | 0.00 | 0.00 | 0.00 | 69 | 1014.5 |
| 20260905233428 | 18 | 303 | 17.7 | 35.4 | 0.00 | 0.00 | 0.00 | 70 | 1014.6 |
| 20260905232931 | 18 | 282 | 20.9 | 35.4 | 0.00 | 0.00 | 0.00 | 70 | 1014.7 |
| 20260905232418 | 18 | 278 | 17.7 | 29.0 | 0.00 | 0.00 | 0.00 | 71 | 1014.7 |
| 20260905231921 | 18 | 289 | 16.1 | 37.0 | 0.00 | 0.00 | 0.00 | 72 | 1014.8 |
| 20260905231431 | 18 | 272 | 14.5 | 37.0 | 0.00 | 0.00 | 0.00 | 72 | 1014.9 |
| 20260905230918 | 18 | 267 | 12.9 | 30.6 | 0.00 | 0.00 | 0.00 | 73 | 1014.9 |
| 20260905230425 | 18 | 245 | 12.9 | 30.6 | 0.00 | 0.00 | 0.00 | 73 | 1015.0 |
| 20260905225932 | 18 | 275 | 19.3 | 35.4 | 0.00 | 0.00 | 0.00 | 72 | 1014.9 |
| 20260905225419 | 18 | 275 | 14.5 | 37.0 | 0.00 | 0.00 | 0.00 | 72 | 1014.9 |
| 20260905224921 | 19 | 257 | 20.9 | 37.0 | 0.00 | 0.00 | 0.00 | 71 | 1014.8 |
| 20260905224424 | 19 | 286 | 17.7 | 33.8 | 0.00 | 0.00 | 0.00 | 70 | 1014.8 |
| 20260905223930 | 19 | 284 | 11.3 | 33.8 | 0.00 | 0.00 | 0.00 | 70 | 1014.8 |
| 20260905223435 | 20 | 299 | 19.3 | 32.2 | 0.00 | 0.00 | 0.00 | 69 | 1014.7 |
| 20260905222922 | 20 | 268 | 19.3 | 32.2 | 0.00 | 0.00 | 0.00 | 68 | 1014.7 |
| 20260905222427 | 20 | 280 | 14.5 | 24.1 | 0.00 | 0.00 | 0.00 | 68 | 1014.7 |
| 20260905221936 | 20 | 258 | 14.5 | 32.2 | 0.00 | 0.00 | 0.00 | 67 | 1014.7 |
| 20260905221424 | 20 | 240 | 19.3 | 32.2 | 0.00 | 0.00 | 0.00 | 66 | 1014.6 |
| 20260905220933 | 20 | 263 | 16.1 | 30.6 | 0.00 | 0.00 | 0.00 | 69 | 1014.7 |
| 20260905220417 | 19 | 287 | 16.1 | 38.6 | 0.00 | 0.00 | 0.00 | 70 | 1014.6 |
| 20260905215944 | 19 | 275 | 24.1 | 38.6 | 0.00 | 0.00 | 0.00 | 71 | 1014.6 |
| 20260905215431 | 18 | 268 | 27.4 | 41.8 | 0.00 | 0.00 | 0.00 | 71 | 1014.6 |
| 20260905214917 | 18 | 290 | 27.4 | 41.8 | 0.00 | 0.00 | 0.00 | 71 | 1014.8 |
| 20260905214441 | 19 | 275 | 25.7 | 41.8 | 0.00 | 0.00 | 0.00 | 71 | 1014.8 |
| 20260905213926 | 19 | 278 | 30.6 | 41.8 | 0.00 | 0.00 | 0.00 | 70 | 1014.9 |
| 20260905213427 | 20 | 287 | 22.5 | 35.4 | 0.00 | 0.00 | 0.00 | 70 | 1014.7 |
| 20260905212933 | 20 | 261 | 19.3 | 32.2 | 0.00 | 0.00 | 0.00 | 70 | 1014.7 |
| 20260905212441 | 20 | 278 | 17.7 | 35.4 | 0.00 | 0.00 | 0.00 | 70 | 1014.7 |
| 20260905211928 | 20 | 271 | 19.3 | 35.4 | 0.00 | 0.00 | 0.00 | 70 | 1014.8 |
| 20260905211435 | 20 | 261 | 20.9 | 33.8 | 0.00 | 0.00 | 0.00 | 69 | 1014.8 |
| 20260905210924 | 20 | 277 | 22.5 | 32.2 | 0.00 | 0.00 | 0.00 | 68 | 1014.8 |
| 20260905210427 | 20 | 277 | 19.3 | 32.2 | 0.00 | 0.00 | 0.00 | 67 | 1014.9 |
| 20260905205930 | 20 | 237 | 17.7 | 33.8 | 0.00 | 0.00 | 0.00 | 67 | 1015.0 |
| 20260905205418 | 20 | 258 | 20.9 | 35.4 | 0.00 | 0.00 | 0.00 | 66 | 1014.8 |
| 20260905204924 | 20 | 285 | 22.5 | 35.4 | 0.00 | 0.00 | 0.00 | 67 | 1014.9 |
| 20260905204429 | 20 | 284 | 24.1 | 35.4 | 0.00 | 0.00 | 0.00 | 67 | 1014.8 |
| 20260905203936 | 20 | 273 | 16.1 | 33.8 | 0.00 | 0.00 | 0.00 | 66 | 1014.7 |
| 20260905203453 | 20 | 284 | 24.1 | 33.8 | 0.00 | 0.00 | 0.00 | 65 | 1014.8 |
| 20260905202938 | 20 | 271 | 14.5 | 33.8 | 0.00 | 0.00 | 0.00 | 64 | 1014.8 |
| 20260905202420 | 21 | 219 | 16.1 | 33.8 | 0.00 | 0.00 | 0.00 | 63 | 1014.8 |
| 20260905201927 | 21 | 278 | 14.5 | 32.2 | 0.00 | 0.00 | 0.00 | 61 | 1014.7 |
| 20260905201434 | 21 | 230 | 14.5 | 25.7 | 0.00 | 0.00 | 0.00 | 60 | 1014.6 |
| 20260905200919 | 21 | 282 | 8.0 | 25.7 | 0.00 | 0.00 | 0.00 | 64 | 1014.7 |
| 20260905200427 | 20 | 268 | 12.9 | 25.7 | 0.00 | 0.00 | 0.00 | 65 | 1014.9 |
| 20260905195932 | 20 | 304 | 11.3 | 25.7 | 0.00 | 0.00 | 0.00 | 65 | 1014.9 |
| 20260905195419 | 20 | 290 | 8.0 | 19.3 | 0.00 | 0.00 | 0.00 | 65 | 1015.0 |
| 20260905194925 | 20 | 321 | 9.7 | 19.3 | 0.00 | 0.00 | 0.00 | 66 | 1015.0 |
| 20260905194426 | 20 | 299 | 9.7 | 16.1 | 0.00 | 0.00 | 0.00 | 67 | 1015.0 |
| 20260905193932 | 20 | 17 | 6.4 | 19.3 | 0.00 | 0.00 | 0.00 | 68 | 1015.2 |
| 20260905193440 | 20 | 248 | 11.3 | 19.3 | 0.00 | 0.00 | 0.00 | 68 | 1015.2 |
| 20260905192924 | 20 | 277 | 11.3 | 19.3 | 0.00 | 0.00 | 0.00 | 67 | 1015.3 |
| 20260905192429 | 20 | 322 | 11.3 | 19.3 | 0.00 | 0.00 | 0.00 | 67 | 1015.2 |
| 20260905191917 | 20 | 206 | 8.0 | 17.7 | 0.00 | 0.00 | 0.00 | 68 | 1015.3 |
| 20260905191440 | 20 | 264 | 11.3 | 19.3 | 0.00 | 0.00 | 0.00 | 68 | 1015.3 |
| 20260905190927 | 20 | 233 | 12.9 | 22.5 | 0.00 | 0.00 | 0.00 | 69 | 1015.2 |
| 20260905190436 | 20 | 224 | 8.0 | 22.5 | 0.00 | 0.00 | 0.00 | 69 | 1015.4 |
| 20260905185932 | 20 | 304 | 12.9 | 22.5 | 0.00 | 0.00 | 0.00 | 69 | 1015.3 |
| 20260905185418 | 20 | 280 | 12.9 | 22.5 | 0.00 | 0.00 | 0.00 | 68 | 1015.3 |
| 20260905184923 | 20 | 264 | 11.3 | 20.9 | 0.00 | 0.00 | 0.00 | 68 | 1015.2 |
| 20260905184431 | 20 | 247 | 8.0 | 17.7 | 0.00 | 0.00 | 0.00 | 68 | 1015.1 |
| 20260905183935 | 20 | 263 | 11.3 | 16.1 | 0.00 | 0.00 | 0.00 | 67 | 1015.2 |
| 20260905183449 | 21 | 245 | 8.0 | 16.1 | 0.00 | 0.00 | 0.00 | 68 | 1015.2 |
| 20260905182933 | 21 | 240 | 6.4 | 16.1 | 0.00 | 0.00 | 0.00 | 68 | 1015.3 |
| 20260905182418 | 21 | 294 | 6.4 | 14.5 | 0.00 | 0.00 | 0.00 | 68 | 1015.2 |
| 20260905181923 | 20 | 277 | 4.8 | 14.5 | 0.00 | 0.00 | 0.00 | 69 | 1015.3 |
| 20260905181431 | 20 | 14 | 4.8 | 9.7 | 0.00 | 0.00 | 0.00 | 69 | 1015.3 |
| 20260905180937 | 20 | 259 | 4.8 | 12.9 | 0.00 | 0.00 | 0.00 | 69 | 1015.3 |
| 20260905180422 | 20 | 299 | 6.4 | 12.9 | 0.00 | 0.00 | 0.00 | 69 | 1015.3 |
| 20260905175941 | 20 | 1 | 1.6 | 11.3 | 0.00 | 0.00 | 0.00 | 70 | 1015.2 |
| 20260905175426 | 20 | 147 | 4.8 | 11.3 | 0.00 | 0.00 | 0.00 | 70 | 1015.2 |
| 20260905174933 | 20 | 323 | 4.8 | 11.3 | 0.00 | 0.00 | 0.00 | 70 | 1015.1 |
| 20260905174418 | 20 | 259 | 3.2 | 6.4 | 0.00 | 0.00 | 0.00 | 71 | 1015.2 |
| 20260905173921 | 19 | 339 | 3.2 | 8.0 | 0.00 | 0.00 | 0.00 | 72 | 1015.1 |
| 20260905173424 | 18 | 333 | 3.2 | 9.7 | 0.00 | 0.00 | 0.00 | 72 | 1015.1 |
| 20260905172921 | 18 | 308 | 6.4 | 9.7 | 0.00 | 0.00 | 0.00 | 71 | 1015.1 |
| 20260905172426 | 19 | 360 | 3.2 | 9.7 | 0.00 | 0.00 | 0.00 | 72 | 1015.1 |
| 20260905171930 | 18 | 276 | 6.4 | 11.3 | 0.00 | 0.00 | 0.00 | 72 | 1014.9 |
| 20260905171436 | 19 | 329 | 4.8 | 11.3 | 0.00 | 0.00 | 0.00 | 72 | 1015.0 |
| 20260905170942 | 18 | 151 | 4.8 | 11.3 | 0.00 | 0.00 | 0.00 | 72 | 1015.0 |
| 20260905170429 | 19 | 249 | 6.4 | 9.7 | 0.00 | 0.00 | 0.00 | 72 | 1014.9 |
| 20260905165934 | 19 | 257 | 4.8 | 8.0 | 0.00 | 0.00 | 0.00 | 72 | 1014.9 |
| 20260905165434 | 19 | 151 | 3.2 | 6.4 | 0.00 | 0.00 | 0.00 | 72 | 1014.8 |
| 20260905164919 | 18 | 95 | 4.8 | 6.4 | 0.00 | 0.00 | 0.00 | 73 | 1014.8 |
| 20260905164424 | 18 | 88 | 3.2 | 6.4 | 0.00 | 0.00 | 0.00 | 73 | 1014.8 |
| 20260905163930 | 18 | 352 | 3.2 | 6.4 | 0.00 | 0.00 | 0.00 | 74 | 1014.8 |
| 20260905163435 | 18 | 151 | 3.2 | 8.0 | 0.00 | 0.00 | 0.00 | 75 | 1014.7 |
| 20260905162920 | 17 | 151 | 3.2 | 8.0 | 0.00 | 0.00 | 0.00 | 75 | 1014.7 |
| 20260905162428 | 17 | 207 | 1.6 | 6.4 | 0.00 | 0.00 | 0.00 | 76 | 1014.7 |
| 20260905161932 | 17 | 202 | 3.2 | 6.4 | 0.00 | 0.00 | 0.00 | 76 | 1014.6 |
| 20260905161449 | 17 | 222 | 3.2 | 6.4 | 0.00 | 0.00 | 0.00 | 78 | 1014.7 |
| 20260905160933 | 17 | 78 | 3.2 | 4.8 | 0.00 | 0.00 | 0.00 | 80 | 1014.6 |
| 20260905160420 | 17 | 55 | 3.2 | 6.4 | 0.00 | 0.00 | 0.00 | 81 | 1014.6 |
| 20260905155925 | 17 | 156 | 3.2 | 6.4 | 0.00 | 0.00 | 0.00 | 82 | 1014.6 |
| 20260905155430 | 16 | 212 | 3.2 | 8.0 | 0.00 | 0.00 | 0.00 | 83 | 1014.6 |
| 20260905154936 | 16 | 151 | 4.8 | 8.0 | 0.00 | 0.00 | 0.00 | 84 | 1014.6 |
| 20260905154421 | 16 | 177 | 3.2 | 6.4 | 0.00 | 0.00 | 0.00 | 84 | 1014.8 |
| 20260905153921 | 16 | 212 | 3.2 | 6.4 | 0.00 | 0.00 | 0.00 | 85 | 1014.8 |
| 20260905153427 | 16 | 177 | 3.2 | 8.0 | 0.00 | 0.00 | 0.00 | 85 | 1014.9 |
| 20260905152931 | 16 | 194 | 4.8 | 8.0 | 0.00 | 0.00 | 0.00 | 85 | 1014.8 |
| 20260905152433 | 16 | 228 | 3.2 | 8.0 | 0.00 | 0.00 | 0.00 | 85 | 1014.9 |
| 20260905151938 | 16 | 222 | 3.2 | 6.4 | 0.00 | 0.00 | 0.00 | 86 | 1014.8 |
| 20260905151452 | 15 | 107 | 1.6 | 6.4 | 0.00 | 0.00 | 0.00 | 86 | 1014.8 |
| 20260905150932 | 16 | 214 | 1.6 | 4.8 | 0.00 | 0.00 | 0.00 | 86 | 1014.8 |
| 20260905150434 | 15 | 158 | 1.6 | 4.8 | 0.00 | 0.00 | 0.00 | 87 | 1014.7 |
| 20260905145936 | 15 | 200 | 1.6 | 3.2 | 0.00 | 0.00 | 0.00 | 87 | 1014.7 |
| 20260905145419 | 15 | 123 | 1.6 | 1.6 | 0.00 | 0.00 | 0.00 | 87 | 1014.7 |
| 20260905144943 | 15 | 134 | 0.0 | 3.2 | 0.00 | 0.00 | 0.00 | 87 | 1014.6 |
| 20260905144427 | 15 | 62 | 1.6 | 3.2 | 0.00 | 0.00 | 0.00 | 87 | 1014.6 |
| 20260905143930 | 15 | 88 | 3.2 | 3.2 | 0.00 | 0.00 | 0.00 | 87 | 1014.7 |
| 20260905143430 | 14 | 97 | 1.6 | 3.2 | 0.00 | 0.00 | 0.00 | 87 | 1014.6 |
| 20260905142933 | 14 | 151 | 1.6 | 4.8 | 0.00 | 0.00 | 0.00 | 87 | 1014.6 |
| 20260905142449 | 14 | 208 | 3.2 | 4.8 | 0.00 | 0.00 | 0.00 | 87 | 1014.6 |
| 20260905141933 | 13 | 194 | 3.2 | 6.4 | 0.00 | 0.00 | 0.00 | 87 | 1014.6 |
| 20260905141439 | 13 | 177 | 3.2 | 8.0 | 0.00 | 0.00 | 0.00 | 87 | 1014.5 |
| 20260905140953 | 13 | 201 | 4.8 | 8.0 | 0.00 | 0.00 | 0.00 | 87 | 1014.5 |
| 20260905140418 | 13 | 208 | 4.8 | 8.0 | 0.00 | 0.00 | 0.00 | 87 | 1014.4 |
| 20260905135936 | 13 | 192 | 3.2 | 6.4 | 0.00 | 0.00 | 0.00 | 87 | 1014.4 |
| 20260905135422 | 13 | 205 | 3.2 | 6.4 | 0.00 | 0.00 | 0.00 | 87 | 1014.3 |
| 20260905134926 | 13 | 196 | 3.2 | 6.4 | 0.00 | 0.00 | 0.00 | 87 | 1014.2 |
| 20260905134433 | 13 | 192 | 3.2 | 6.4 | 0.00 | 0.00 | 0.00 | 87 | 1014.2 |
| 20260905133940 | 13 | 192 | 3.2 | 4.8 | 0.00 | 0.00 | 0.00 | 87 | 1014.2 |
| 20260905133424 | 13 | 205 | 1.6 | 3.2 | 0.00 | 0.00 | 0.00 | 87 | 1014.1 |
| 20260905132928 | 13 | 45 | 0.0 | 3.2 | 0.00 | 0.00 | 0.00 | 87 | 1014.1 |
| 20260905132436 | 13 | 196 | 1.6 | 6.4 | 0.00 | 0.00 | 0.00 | 87 | 1014.1 |
| 20260905131951 | 13 | 185 | 3.2 | 6.4 | 0.00 | 0.00 | 0.00 | 86 | 1014.1 |
| 20260905131434 | 13 | 177 | 1.6 | 6.4 | 0.00 | 0.00 | 0.00 | 86 | 1014.1 |
| 20260905130931 | 13 | 208 | 3.2 | 6.4 | 0.00 | 0.00 | 0.00 | 86 | 1014.1 |
| 20260905130418 | 13 | 193 | 3.2 | 6.4 | 0.00 | 0.00 | 0.00 | 86 | 1014.2 |
| 20260905125921 | 13 | 200 | 3.2 | 6.4 | 0.00 | 0.00 | 0.00 | 86 | 1014.2 |
| 20260905125424 | 13 | 222 | 0.0 | 3.2 | 0.00 | 0.00 | 0.00 | 86 | 1014.2 |
| 20260905124928 | 13 | 88 | 1.6 | 3.2 | 0.00 | 0.00 | 0.00 | 86 | 1014.3 |
| 20260905124434 | 13 | 222 | 1.6 | 3.2 | 0.00 | 0.00 | 0.00 | 86 | 1014.3 |
| 20260905123921 | 13 | 88 | 1.6 | 3.2 | 0.00 | 0.00 | 0.00 | 86 | 1014.3 |
| 20260905123446 | 13 | 116 | 1.6 | 4.8 | 0.00 | 0.00 | 0.00 | 86 | 1014.2 |
| 20260905122931 | 14 | 192 | 1.6 | 4.8 | 0.00 | 0.00 | 0.00 | 86 | 1014.2 |
| 20260905122436 | 14 | 201 | 3.2 | 4.8 | 0.00 | 0.00 | 0.00 | 86 | 1014.2 |
| 20260905121938 | 13 | 232 | 3.2 | 4.8 | 0.00 | 0.00 | 0.00 | 86 | 1014.2 |
| 20260905121453 | 14 | 210 | 3.2 | 4.8 | 0.00 | 0.00 | 0.00 | 86 | 1014.3 |
| 20260905120935 | 14 | 187 | 3.2 | 4.8 | 0.00 | 0.00 | 0.00 | 85 | 1014.3 |
| 20260905120420 | 14 | 218 | 3.2 | 3.2 | 0.00 | 0.00 | 0.00 | 85 | 1014.2 |
| 20260905115955 | 14 | 222 | 1.6 | 4.8 | 0.00 | 0.00 | 0.00 | 86 | 1014.3 |
| 20260905115440 | 14 | 120 | 3.2 | 4.8 | 0.00 | 0.00 | 0.00 | 86 | 1014.2 |
| 20260905114954 | 14 | 144 | 3.2 | 4.8 | 0.00 | 0.00 | 0.00 | 86 | 1014.3 |
| 20260905114446 | 14 | 125 | 3.2 | 4.8 | 0.00 | 0.00 | 0.00 | 85 | 1014.3 |
| 20260905113931 | 14 | 147 | 3.2 | 4.8 | 0.00 | 0.00 | 0.00 | 85 | 1014.3 |
| 20260905113419 | 14 | 134 | 4.8 | 6.4 | 0.00 | 0.00 | 0.00 | 85 | 1014.3 |
| 20260905112924 | 14 | 141 | 3.2 | 6.4 | 0.00 | 0.00 | 0.00 | 85 | 1014.3 |
| 20260905112431 | 14 | 155 | 3.2 | 4.8 | 0.00 | 0.00 | 0.00 | 85 | 1014.3 |
| 20260905111917 | 15 | 130 | 3.2 | 4.8 | 0.00 | 0.00 | 0.00 | 85 | 1014.4 |
| 20260905111425 | 15 | 45 | 1.6 | 4.8 | 0.00 | 0.00 | 0.00 | 85 | 1014.4 |
| 20260905110947 | 15 | 88 | 1.6 | 8.0 | 0.00 | 0.00 | 0.00 | 85 | 1014.4 |
| 20260905110434 | 15 | 218 | 1.6 | 8.0 | 0.00 | 0.00 | 0.00 | 85 | 1014.3 |
| 20260905105917 | 15 | 228 | 3.2 | 11.3 | 0.00 | 0.00 | 0.00 | 85 | 1014.3 |
| 20260905105423 | 15 | 247 | 6.4 | 11.3 | 0.00 | 0.00 | 0.00 | 85 | 1014.4 |
| 20260905104929 | 15 | 254 | 4.8 | 11.3 | 0.00 | 0.00 | 0.00 | 85 | 1014.3 |
| 20260905104418 | 15 | 258 | 3.2 | 4.8 | 0.00 | 0.00 | 0.00 | 85 | 1014.3 |
| 20260905103924 | 15 | 151 | 1.6 | 6.4 | 0.00 | 0.00 | 0.00 | 85 | 1014.3 |
| 20260905103428 | 15 | 116 | 4.8 | 6.4 | 0.00 | 0.00 | 0.00 | 85 | 1014.3 |
| 20260905102934 | 15 | 151 | 1.6 | 6.4 | 0.00 | 0.00 | 0.00 | 84 | 1014.3 |
| 20260905102419 | 15 | 339 | 3.2 | 6.4 | 0.00 | 0.00 | 0.00 | 84 | 1014.3 |
| 20260905101927 | 15 | 45 | 1.6 | 8.0 | 0.00 | 0.00 | 0.00 | 85 | 1014.4 |
| 20260905101432 | 15 | 285 | 3.2 | 12.9 | 0.00 | 0.00 | 0.00 | 85 | 1014.4 |
| 20260905100941 | 15 | 282 | 4.8 | 12.9 | 0.00 | 0.00 | 0.00 | 85 | 1014.4 |
| 20260905100458 | 15 | 214 | 3.2 | 14.5 | 0.00 | 0.00 | 0.00 | 84 | 1014.3 |
| 20260905095926 | 15 | 257 | 6.4 | 16.1 | 0.00 | 0.00 | 0.00 | 84 | 1014.3 |
| 20260905095431 | 15 | 273 | 8.0 | 16.1 | 0.00 | 0.00 | 0.00 | 84 | 1014.3 |
| 20260905094921 | 15 | 251 | 8.0 | 14.5 | 0.00 | 0.00 | 0.00 | 84 | 1014.3 |
| 20260905094427 | 15 | 282 | 8.0 | 14.5 | 0.00 | 0.00 | 0.00 | 84 | 1014.3 |
| 20260905093935 | 15 | 268 | 8.0 | 19.3 | 0.00 | 0.00 | 0.00 | 84 | 1014.2 |
| 20260905093421 | 15 | 258 | 9.7 | 19.3 | 0.00 | 0.00 | 0.00 | 84 | 1014.2 |
| 20260905092927 | 15 | 301 | 8.0 | 16.1 | 0.00 | 0.00 | 0.00 | 84 | 1014.3 |
| 20260905092435 | 15 | 261 | 6.4 | 14.5 | 0.00 | 0.00 | 0.00 | 84 | 1014.3 |
| 20260905091937 | 15 | 237 | 6.4 | 16.1 | 0.00 | 0.00 | 0.00 | 84 | 1014.4 |
| 20260905091424 | 15 | 232 | 9.7 | 19.3 | 0.00 | 0.00 | 0.00 | 85 | 1014.4 |
| 20260905090931 | 15 | 273 | 9.7 | 22.5 | 0.00 | 0.00 | 0.00 | 85 | 1014.4 |
| 20260905090418 | 15 | 256 | 12.9 | 22.5 | 0.00 | 0.00 | 0.00 | 85 | 1014.5 |
| 20260905085922 | 15 | 292 | 12.9 | 22.5 | 0.00 | 0.00 | 0.00 | 86 | 1014.4 |
| 20260905085431 | 15 | 271 | 12.9 | 22.5 | 0.00 | 0.00 | 0.00 | 86 | 1014.5 |
| 20260905084939 | 15 | 217 | 12.9 | 22.5 | 0.00 | 0.00 | 0.00 | 86 | 1014.5 |
| 20260905084450 | 15 | 282 | 12.9 | 24.1 | 0.00 | 0.00 | 0.00 | 86 | 1014.5 |
| 20260905083918 | 15 | 292 | 12.9 | 24.1 | 0.00 | 0.00 | 0.00 | 85 | 1014.5 |
| 20260905083446 | 15 | 268 | 12.9 | 24.1 | 0.00 | 0.00 | 0.00 | 85 | 1014.6 |
| 20260905082931 | 15 | 270 | 14.5 | 24.1 | 0.00 | 0.00 | 0.00 | 85 | 1014.5 |
| 20260905082438 | 15 | 289 | 14.5 | 25.7 | 0.00 | 0.00 | 0.00 | 85 | 1014.6 |
| 20260905081953 | 15 | 280 | 14.5 | 25.7 | 0.00 | 0.00 | 0.00 | 85 | 1014.6 |
| 20260905081417 | 15 | 268 | 14.5 | 27.4 | 0.00 | 0.00 | 0.00 | 85 | 1014.5 |
| 20260905080921 | 15 | 292 | 16.1 | 27.4 | 0.00 | 0.00 | 0.00 | 85 | 1014.4 |
| 20260905080427 | 15 | 218 | 12.9 | 25.7 | 0.00 | 0.00 | 0.00 | 85 | 1014.5 |
| 20260905075930 | 15 | 252 | 16.1 | 25.7 | 0.00 | 0.00 | 0.00 | 85 | 1014.4 |
| 20260905075418 | 15 | 238 | 14.5 | 24.1 | 0.00 | 0.00 | 0.00 | 84 | 1014.4 |
| 20260905074926 | 15 | 294 | 14.5 | 24.1 | 0.00 | 0.00 | 0.00 | 84 | 1014.5 |
| 20260905074431 | 15 | 254 | 11.3 | 24.1 | 0.00 | 0.00 | 0.00 | 83 | 1014.4 |
| 20260905073937 | 15 | 256 | 11.3 | 22.5 | 0.00 | 0.00 | 0.00 | 83 | 1014.3 |
| 20260905073428 | 15 | 237 | 11.3 | 22.5 | 0.00 | 0.00 | 0.00 | 82 | 1014.3 |
| 20260905072931 | 15 | 268 | 9.7 | 16.1 | 0.00 | 0.00 | 0.00 | 82 | 1014.2 |
| 20260905072435 | 15 | 268 | 8.0 | 16.1 | 0.00 | 0.00 | 0.00 | 81 | 1014.3 |
| 20260905071924 | 15 | 279 | 9.7 | 17.7 | 0.00 | 0.00 | 0.00 | 81 | 1014.3 |
| 20260905071429 | 16 | 275 | 9.7 | 17.7 | 0.00 | 0.00 | 0.00 | 80 | 1014.3 |
| 20260905070936 | 16 | 256 | 8.0 | 20.9 | 0.00 | 0.00 | 0.00 | 80 | 1014.3 |